Starlink 3176

operational
NORAD ID: 51106 Int'l Des: 2022-005 Owner: SPXS Country: US Constellation: starlink
LEOCIRCULAR

Starlink 3176について

説明を読み込み中...

リアルタイム位置

3D地球を読み込み中...

次回通過

高度履歴

Altitude vs Time

uPlot chart will show altitude changes over time

軌道要素

1 51106U 22005C 25304.85474875 -.00000203 00000-0 53069-5 0 9998
2 51106 53.2166 147.4829 0001436 92.9548 267.1609 15.08834192209423
Epoch: Oct 31, 2025 • Age: 8 hours

現在のステータス

高度 557.4 km
速度 7.58 km/s
衛星直下点 -48.62°S, 14.59°W
打ち上げ日 Jan 19, 2022
運用期間 3.7 years
タイプ internet

技術仕様

分類 Payload
質量 297.00 kg
乾燥質量 275.00 kg
総質量 297.00 kg
長さ 0.20 m
直径 2.80 m
スパン 9.00 m
形状 Box + pan
製造者 SPXS
バスタイプ Starlink
フェーズステータス In Orbit
所有者/国 SPXS/US

大規模コンステレーション

Loading constellations...